Time,TemperatureF,DewpointF,PressureIn,WindDirection,WindDirectionDegrees,WindSpeedMPH,WindSpeedGustMPH,Humidity,HourlyPrecipIn,Conditions,Clouds,dailyrainin,SoftwareType,DateUTC
2013-04-24 00:01:00,32.0,25.0,-100.00,North,350,12.0,17.0,76,0.00,,,0.00,,2013-04-24 00:01:00,
2013-04-24 00:11:00,32.0,25.0,-100.00,North,355,14.0,18.0,75,0.00,,,0.00,,2013-04-24 00:11:00,
2013-04-24 00:21:00,31.0,25.0,-100.00,NNW,345,13.0,17.0,75,0.00,,,0.00,,2013-04-24 00:21:00,
2013-04-24 00:32:00,31.0,25.0,-100.00,North,350,11.0,17.0,76,0.00,,,0.00,,2013-04-24 00:32:00,
2013-04-24 00:41:00,31.0,23.0,-100.00,North,350,14.0,17.0,73,0.00,,,0.00,,2013-04-24 00:41:00,
2013-04-24 00:51:00,31.0,23.0,-100.00,NNW,345,12.0,14.0,76,0.00,,,0.00,,2013-04-24 00:51:00,
2013-04-24 01:01:00,30.0,25.0,-100.00,NNW,345,11.0,15.0,77,0.00,,,0.00,,2013-04-24 01:01:00,
2013-04-24 01:11:00,30.0,25.0,-100.00,North,350,12.0,15.0,78,0.00,,,0.00,,2013-04-24 01:11:00,
2013-04-24 01:21:00,30.0,25.0,-100.00,NNW,340,9.0,14.0,80,0.00,,,0.00,,2013-04-24 01:21:00,
2013-04-24 01:32:00,29.0,25.0,-100.00,NNW,340,8.0,13.0,82,0.00,,,0.00,,2013-04-24 01:32:00,
2013-04-24 01:42:00,29.0,25.0,-100.00,NNW,335,8.0,11.0,83,0.00,,,0.00,,2013-04-24 01:42:00,
2013-04-24 01:52:00,29.0,25.0,-100.00,NNW,330,9.0,11.0,84,0.00,,,0.00,,2013-04-24 01:52:00,
2013-04-24 02:02:00,28.0,25.0,-100.00,NW,325,7.0,9.0,86,0.00,,,0.00,,2013-04-24 02:02:00,
2013-04-24 02:15:00,28.0,25.0,-100.00,NW,315,8.0,10.0,86,0.00,,,0.00,,2013-04-24 02:15:00,
2013-04-24 02:46:00,28.0,25.0,-100.00,NW,320,8.0,11.0,90,0.00,,,0.00,,2013-04-24 02:46:00,
2013-04-24 02:55:00,28.0,25.0,-100.00,NW,315,7.0,10.0,92,0.00,,,0.00,,2013-04-24 02:55:00,
2013-04-24 03:08:00,28.0,27.0,-100.00,NW,325,9.0,11.0,93,0.00,,,0.00,,2013-04-24 03:08:00,
2013-04-24 03:14:00,27.0,25.0,-100.00,NW,325,7.0,11.0,92,0.00,,,0.00,,2013-04-24 03:14:00,
2013-04-24 03:48:00,26.0,25.0,-100.00,NW,320,6.0,7.0,97,0.00,,,0.00,,2013-04-24 03:48:00,
2013-04-24 03:55:00,26.0,25.0,-100.00,NW,315,7.0,8.0,97,0.00,,,0.00,,2013-04-24 03:55:00,
2013-04-24 04:03:00,25.0,25.0,-100.00,NW,305,6.0,6.0,99,0.00,,,0.00,,2013-04-24 04:03:00,
2013-04-24 04:12:00,25.0,25.0,-100.00,NW,305,6.0,6.0,99,0.00,,,0.00,,2013-04-24 04:12:00,
2013-04-24 04:23:00,25.0,25.0,-100.00,NW,315,6.0,7.0,99,0.00,,,0.00,,2013-04-24 04:23:00,
2013-04-24 04:33:00,25.0,25.0,-100.00,NW,310,6.0,7.0,99,0.00,,,0.00,,2013-04-24 04:33:00,
2013-04-24 05:12:00,24.0,23.0,-100.00,WNW,300,4.0,6.0,99,0.00,,,0.00,,2013-04-24 05:12:00,
2013-04-24 05:21:00,24.0,23.0,-100.00,West,280,5.0,6.0,99,0.00,,,0.00,,2013-04-24 05:21:00,
2013-04-24 05:32:00,23.0,23.0,-100.00,West,275,5.0,6.0,99,0.00,,,0.00,,2013-04-24 05:32:00,
2013-04-24 05:42:00,25.0,25.0,-100.00,West,280,6.0,7.0,99,0.00,,,0.00,,2013-04-24 05:42:00,
2013-04-24 06:02:00,24.0,23.0,-100.00,West,275,5.0,6.0,99,0.00,,,0.00,,2013-04-24 06:02:00,
2013-04-24 06:12:00,23.0,23.0,-100.00,West,275,4.0,6.0,99,0.00,,,0.00,,2013-04-24 06:12:00,
2013-04-24 06:21:00,24.0,23.0,-100.00,West,280,6.0,7.0,99,0.00,,,0.00,,2013-04-24 06:21:00,
2013-04-24 06:51:00,25.0,25.0,-100.00,West,265,6.0,8.0,99,0.00,,,0.00,,2013-04-24 06:51:00,
2013-04-24 07:02:00,25.0,25.0,-100.00,WSW,255,7.0,9.0,99,0.00,,,0.00,,2013-04-24 07:02:00,
2013-04-24 07:41:00,27.0,27.0,-100.00,West,270,9.0,12.0,99,0.00,,,0.00,,2013-04-24 07:41:00,
2013-04-24 07:52:00,27.0,27.0,-100.00,West,265,8.0,12.0,99,0.00,,,0.00,,2013-04-24 07:52:00,
2013-04-24 08:01:00,27.0,27.0,-100.00,West,265,7.0,11.0,99,0.00,,,0.00,,2013-04-24 08:01:00,
2013-04-24 08:11:00,27.0,27.0,-100.00,West,265,6.0,11.0,99,0.00,,,0.00,,2013-04-24 08:11:00,
2013-04-24 08:21:00,27.0,27.0,-100.00,West,265,6.0,9.0,99,0.00,,,0.00,,2013-04-24 08:21:00,
2013-04-24 08:33:00,27.0,27.0,-100.00,West,260,4.0,7.0,99,0.00,,,0.00,,2013-04-24 08:33:00,
2013-04-24 08:52:00,25.0,25.0,-100.00,WSW,255,4.0,6.0,99,0.00,,,0.00,,2013-04-24 08:52:00,
2013-04-24 09:11:00,26.0,25.0,-100.00,West,265,4.0,7.0,99,0.00,,,0.00,,2013-04-24 09:11:00,
2013-04-24 09:21:00,26.0,25.0,-100.00,West,260,5.0,6.0,99,0.00,,,0.00,,2013-04-24 09:21:00,
2013-04-24 09:42:00,25.0,25.0,-100.00,West,275,6.0,7.0,99,0.00,,,0.00,,2013-04-24 09:42:00,
2013-04-24 10:12:00,25.0,25.0,-100.00,West,275,6.0,6.0,99,0.00,,,0.00,,2013-04-24 10:12:00,
2013-04-24 10:42:00,24.0,23.0,-100.00,West,275,6.0,7.0,99,0.00,,,0.00,,2013-04-24 10:42:00,
2013-04-24 10:52:00,25.0,25.0,-100.00,West,280,6.0,7.0,99,0.00,,,0.00,,2013-04-24 10:52:00,
2013-04-24 11:02:00,25.0,25.0,-100.00,West,275,7.0,8.0,99,0.00,,,0.00,,2013-04-24 11:02:00,
2013-04-24 11:32:00,26.0,25.0,-100.00,West,270,6.0,8.0,99,0.00,,,0.00,,2013-04-24 11:32:00,
2013-04-24 11:42:00,27.0,27.0,-100.00,West,275,7.0,9.0,99,0.00,,,0.00,,2013-04-24 11:42:00,
2013-04-24 11:52:00,27.0,27.0,-100.00,West,280,7.0,9.0,98,0.00,,,0.00,,2013-04-24 11:52:00,
2013-04-24 12:22:00,27.0,27.0,-100.00,West,280,6.0,7.0,98,0.00,,,0.00,,2013-04-24 12:22:00,
2013-04-24 12:32:00,27.0,27.0,-100.00,West,275,5.0,7.0,97,0.00,,,0.00,,2013-04-24 12:32:00,
2013-04-24 12:42:00,29.0,27.0,-100.00,West,270,6.0,7.0,95,0.00,,,0.00,,2013-04-24 12:42:00,
2013-04-24 12:51:00,29.0,27.0,-100.00,West,275,6.0,7.0,93,0.00,,,0.00,,2013-04-24 12:51:00,
2013-04-24 13:01:00,30.0,28.0,-100.00,West,270,7.0,11.0,92,0.00,,,0.00,,2013-04-24 13:01:00,
2013-04-24 13:12:00,30.0,28.0,-100.00,West,265,7.0,11.0,91,0.00,,,0.00,,2013-04-24 13:12:00,
2013-04-24 13:22:00,30.0,28.0,-100.00,West,270,9.0,11.0,91,0.00,,,0.00,,2013-04-24 13:22:00,
2013-04-24 13:31:00,31.0,28.0,-100.00,West,270,8.0,11.0,91,0.00,,,0.00,,2013-04-24 13:31:00,
2013-04-24 13:41:00,31.0,28.0,-100.00,West,270,10.0,12.0,91,0.00,,,0.00,,2013-04-24 13:41:00,
2013-04-24 13:52:00,32.0,28.0,-100.00,West,275,12.0,14.0,90,0.00,,,0.00,,2013-04-24 13:52:00,
2013-04-24 14:01:00,32.0,30.0,-100.00,West,280,11.0,13.0,89,0.00,,,0.00,,2013-04-24 14:01:00,
2013-04-24 14:11:00,33.0,30.0,-100.00,West,280,10.0,13.0,88,0.00,,,0.00,,2013-04-24 14:11:00,
2013-04-24 14:21:00,34.0,30.0,-100.00,West,275,11.0,13.0,85,0.00,,,0.00,,2013-04-24 14:21:00,
2013-04-24 14:32:00,34.0,30.0,-100.00,West,280,11.0,14.0,83,0.00,,,0.00,,2013-04-24 14:32:00,
2013-04-24 14:41:00,35.0,30.0,-100.00,West,275,10.0,13.0,82,0.00,,,0.00,,2013-04-24 14:41:00,
2013-04-24 14:51:00,36.0,32.0,-100.00,WSW,255,9.0,12.0,82,0.00,,,0.00,,2013-04-24 14:51:00,
2013-04-24 15:01:00,36.0,30.0,-100.00,West,260,11.0,14.0,80,0.00,,,0.00,,2013-04-24 15:01:00,
2013-04-24 15:11:00,37.0,30.0,-100.00,West,260,10.0,15.0,77,0.00,,,0.00,,2013-04-24 15:11:00,
2013-04-24 15:21:00,37.0,30.0,-100.00,WSW,250,12.0,15.0,77,0.00,,,0.00,,2013-04-24 15:21:00,
2013-04-24 15:33:00,38.0,30.0,-100.00,WSW,255,12.0,17.0,74,0.00,,,0.00,,2013-04-24 15:33:00,
2013-04-24 15:42:00,38.0,30.0,-100.00,West,270,12.0,16.0,73,0.00,,,0.00,,2013-04-24 15:42:00,
2013-04-24 15:52:00,38.0,30.0,-100.00,West,260,16.0,19.0,73,0.00,,,0.00,,2013-04-24 15:52:00,
2013-04-24 16:03:00,40.0,32.0,-100.00,WSW,255,12.0,18.0,72,0.00,,,0.00,,2013-04-24 16:03:00,
2013-04-24 16:12:00,40.0,32.0,-100.00,WSW,250,14.0,18.0,74,0.00,,,0.00,,2013-04-24 16:12:00,
2013-04-24 16:23:00,40.0,30.0,-100.00,WSW,250,21.0,25.0,68,0.00,,,0.00,,2013-04-24 16:23:00,
2013-04-24 16:32:00,40.0,30.0,-100.00,West,260,15.0,24.0,67,0.00,,,0.00,,2013-04-24 16:32:00,
2013-04-24 16:42:00,41.0,30.0,-100.00,WSW,250,19.0,24.0,67,0.00,,,0.00,,2013-04-24 16:42:00,
2013-04-24 16:52:00,41.0,30.0,-100.00,WSW,245,21.0,26.0,66,0.00,,,0.00,,2013-04-24 16:52:00,
2013-04-24 17:02:00,41.0,32.0,-100.00,WSW,245,17.0,24.0,67,0.00,,,0.00,,2013-04-24 17:02:00,
2013-04-24 17:12:00,42.0,30.0,-100.00,WSW,240,24.0,28.0,65,0.00,,,0.00,,2013-04-24 17:12:00,
2013-04-24 17:22:00,42.0,32.0,-100.00,WSW,250,20.0,26.0,65,0.00,,,0.00,,2013-04-24 17:22:00,
2013-04-24 17:32:00,43.0,32.0,-100.00,SW,235,20.0,26.0,64,0.00,,,0.00,,2013-04-24 17:32:00,
2013-04-24 17:42:00,43.0,30.0,-100.00,SW,230,21.0,26.0,63,0.00,,,0.00,,2013-04-24 17:42:00,
2013-04-24 17:51:00,44.0,34.0,-100.00,WSW,250,19.0,25.0,65,0.00,,,0.00,,2013-04-24 17:51:00,
2013-04-24 18:02:00,43.0,30.0,-100.00,WSW,240,24.0,28.0,61,0.00,,,0.00,,2013-04-24 18:02:00,
2013-04-24 18:12:00,43.0,30.0,-100.00,SW,235,22.0,28.0,61,0.00,,,0.00,,2013-04-24 18:12:00,
2013-04-24 18:21:00,44.0,34.0,-100.00,SW,235,23.0,28.0,64,0.00,,,0.00,,2013-04-24 18:21:00,
2013-04-24 18:33:00,44.0,34.0,-100.00,SW,225,22.0,29.0,64,0.00,,,0.00,,2013-04-24 18:33:00,
2013-04-24 18:42:00,45.0,34.0,-100.00,WSW,240,22.0,28.0,63,0.00,,,0.00,,2013-04-24 18:42:00,
2013-04-24 18:52:00,45.0,32.0,-100.00,SW,230,21.0,26.0,62,0.00,,,0.00,,2013-04-24 18:52:00,
2013-04-24 19:02:00,46.0,36.0,-100.00,WSW,245,20.0,26.0,64,0.00,,,0.00,,2013-04-24 19:02:00,
2013-04-24 19:11:00,46.0,34.0,-100.00,SW,225,22.0,28.0,62,0.00,,,0.00,,2013-04-24 19:11:00,
2013-04-24 19:21:00,47.0,34.0,-100.00,SW,225,17.0,28.0,62,0.00,,,0.00,,2013-04-24 19:21:00,
2013-04-24 19:31:00,47.0,36.0,-100.00,SW,230,23.0,27.0,62,0.00,,,0.00,,2013-04-24 19:31:00,
2013-04-24 19:42:00,47.0,36.0,-100.00,SW,235,19.0,27.0,64,0.00,,,0.00,,2013-04-24 19:42:00,
2013-04-24 19:52:00,47.0,34.0,-100.00,WSW,250,20.0,29.0,59,0.00,,,0.00,,2013-04-24 19:52:00,
2013-04-24 20:02:00,47.0,32.0,-100.00,WSW,255,23.0,28.0,57,0.00,,,0.00,,2013-04-24 20:02:00,
2013-04-24 20:11:00,48.0,34.0,-100.00,SW,230,20.0,31.0,58,0.00,,,0.00,,2013-04-24 20:11:00,
2013-04-24 20:22:00,49.0,34.0,-100.00,WSW,255,21.0,27.0,57,0.00,,,0.00,,2013-04-24 20:22:00,
2013-04-24 20:32:00,50.0,37.0,-100.00,WSW,240,17.0,28.0,60,0.00,,,0.00,,2013-04-24 20:32:00,
2013-04-24 20:42:00,49.0,36.0,-100.00,WSW,245,19.0,30.0,57,0.00,,,0.00,,2013-04-24 20:42:00,
2013-04-24 20:51:00,49.0,36.0,-100.00,WSW,250,19.0,29.0,57,0.00,,,0.00,,2013-04-24 20:51:00,
2013-04-24 21:02:00,50.0,36.0,-100.00,WSW,255,23.0,31.0,55,0.00,,,0.00,,2013-04-24 21:02:00,
2013-04-24 21:11:00,48.0,32.0,-100.00,West,280,25.0,31.0,54,0.00,,,0.00,,2013-04-24 21:11:00,
2013-04-24 21:21:00,48.0,34.0,-100.00,WSW,255,18.0,28.0,55,0.00,,,0.00,,2013-04-24 21:21:00,
2013-04-24 21:33:00,47.0,34.0,-100.00,West,280,21.0,30.0,62,0.00,,,0.00,,2013-04-24 21:33:00,
2013-04-24 21:42:00,46.0,36.0,-100.00,West,280,20.0,28.0,65,0.00,,,0.00,,2013-04-24 21:42:00,
2013-04-24 21:52:00,44.0,36.0,-100.00,WNW,295,24.0,30.0,71,0.00,,,0.00,,2013-04-24 21:52:00,
2013-04-24 22:22:00,39.0,39.0,-100.00,NW,305,16.0,28.0,99,0.00,,,0.00,,2013-04-24 22:22:00,
2013-04-24 22:33:00,40.0,39.0,-100.00,NW,305,17.0,23.0,99,0.00,,,0.00,,2013-04-24 22:33:00,
2013-04-24 23:12:00,40.0,39.0,-100.00,NW,315,26.0,29.0,99,0.00,,,0.00,,2013-04-24 23:12:00,
2013-04-24 23:21:00,39.0,39.0,-100.00,NW,315,24.0,30.0,99,0.00,,,0.00,,2013-04-24 23:21:00,